Location: Lane
(33.5226°N, 79.8788°W)
Time: 08:30:51
(UTC+00:00)

SR - Pass Details

Date: 01 October 2022
Orbit: 577 x 875 km, 66.7° (Epoch: 27 November)

Event Time Altitude Azimuth Distance (km) Brightness Sun altitude
Rises 11:57:17 0° 332° (NNW) 3,276 ? 8.1°
Reaches altitude 10° 11:59:48 10° 332° (NNW) 2,298 ? 8.7°
Maximum altitude 12:05:02 81° 245° (WSW) 725 ? 9.7°
Drops below altitude 10° 12:09:46 10° 159° (SSE) 2,086 ? 10.7°
Sets 12:11:58 0° 158° (SSE) 2,952 ? 11.2°
